FW4158 Weather Reports


time (UTC)temp
F
wind
direction
speed
knots
gust
knots
rain 1hr
in
rain 24hr
in
rain mn
in
humidity
%
barometer
mb
20260506202036 0 0.0 0.0 0.00 0.00 0.00 1015.4
20260506201511 0 0.0 0.0 0.00 0.00 0.00 1015.5
20260506200917 0 0.0 0.0 0.00 0.00 0.00 1015.5
20260506200403 0 0.0 0.0 0.00 0.00 0.00 1015.5
20260506195825 0 0.0 0.0 0.00 0.00 0.00 1015.5
20260506195319 0 0.0 0.0 0.00 0.00 0.00 1015.5
20260506194808 0 0.0 0.0 0.00 0.00 0.00 1015.2
20260506194304 0 0.0 0.0 0.00 0.00 0.00 1015.2
20260506193759 0 0.0 0.0 0.00 0.00 0.00 1015.2
20260506192729 0 0.0 0.0 0.00 0.00 0.00 1015.1
20260506192137 0 0.0 0.0 0.00 0.00 0.00 1015.1
20260506191633 0 0.0 0.0 0.00 0.00 0.00 1014.9
20260506191117 0 0.0 0.0 0.00 0.00 0.00 1014.9
20260506190536 0 0.0 0.0 0.00 0.00 0.00 1014.9
20260506190025 0 0.0 0.0 0.00 0.00 0.00 1014.8
20260506185017 0 0.0 0.0 0.00 0.00 0.00 1014.8
20260506184454 0 0.0 0.0 0.00 0.00 0.00 1014.7
20260506183902 0 0.0 0.0 0.00 0.00 0.00 1014.7
20260506183356 0 0.0 0.0 0.00 0.00 0.00 1014.7
20260506182850 0 0.0 0.0 0.00 0.00 0.00 1014.7
20260506182327 0 0.0 0.0 0.00 0.00 0.00 1014.7
20260506181744 0 0.0 0.0 0.00 0.00 0.00 1014.6
20260506181239 0 0.0 0.0 0.00 0.00 0.00 1014.6
20260506180731 0 0.0 0.0 0.00 0.00 0.00 1014.6
20260506180212 0 0.0 0.0 0.00 0.00 0.00 1014.5
20260506175711 0 0.0 0.0 0.00 0.00 0.00 1014.5
20260506175133 0 0.0 0.0 0.00 0.00 0.00 1014.5
20260506174608 0 0.0 0.0 0.00 0.00 0.00 1014.3
20260506174050 0 0.0 0.0 0.00 0.00 0.00 1014.3
20260506173502 0 0.0 0.0 0.00 0.00 0.00 1014.3
20260506172443 0 0.0 0.0 0.00 0.00 0.00 1014.2
20260506171404 0 0.0 0.0 0.00 0.00 0.00 1014.3
20260506170822 0 95 4.3 6.1 0.00 0.00 0.00 1014.3
20260506170304 0 95 4.3 6.1 0.00 0.00 0.00 1014.3
20260506165719 0 95 4.3 6.1 0.00 0.00 0.00 1014.3
20260506165211 0 95 4.3 6.1 0.00 0.00 0.00 1014.3
20260506164702 0 89 4.3 7.8 0.00 0.00 0.00 1014.3
20260506164155 0 96 5.2 7.8 0.00 0.00 0.00 1014.3
20260506163146 0 93 6.1 5.2 0.00 0.00 0.00 1014.3
20260506161049 0 99 6.1 6.1 0.00 0.00 0.00 1014.4
20260506160532 0 99 6.1 7.8 0.00 0.00 0.00 1014.4
20260506160029 0 97 6.1 9.6 0.00 0.00 0.00 1014.4
20260506155459 0 91 7.0 9.6 0.00 0.00 0.00 1014.4
20260506154930 0 98 7.0 9.6 0.00 0.00 0.00 1014.4
20260506154404 0 98 7.0 9.6 0.00 0.00 0.00 1014.4
20260506153354 0 98 7.0 7.8 0.00 0.00 0.00 1014.5
20260506152839 0 96 7.0 8.7 0.00 0.00 0.00 1014.5
20260506152333 0 96 7.0 10.4 0.00 0.00 0.00 1014.5
20260506151741 0 104 7.0 10.4 0.00 0.00 0.00 1014.5
20260506151239 0 91 7.0 7.8 0.00 0.00 0.00 1014.5
20260506150228 0 97 6.1 8.7 0.00 0.00 0.00 1014.5
20260506145727 0 74 7.0 7.8 0.00 0.00 0.00 1014.5
20260506144643 0 71 7.0 8.7 0.00 0.00 0.00 1014.6
20260506144106 0 100 7.0 9.6 0.00 0.00 0.00 1014.6
20260506143606 0 81 7.0 10.4 0.00 0.00 0.00 1014.6
20260506143052 0 88 7.0 10.4 0.00 0.00 0.00 1014.5
20260506142552 0 69 7.0 8.7 0.00 0.00 0.00 1014.5
20260506142050 0 98 7.0 8.7 0.00 0.00 0.00 1014.5
20260506141550 0 89 7.0 7.8 0.00 0.00 0.00 1014.6
20260506140457 0 94 7.0 9.6 0.00 0.00 0.00 1014.6
20260506135953 0 91 7.0 9.6 0.00 0.00 0.00 1014.8
20260506135451 0 106 7.0 8.7 0.00 0.00 0.00 1014.8
20260506134950 0 98 7.8 8.7 0.00 0.00 0.00 1014.8
20260506134441 0 0.0 0.0 0.00 0.00 0.00 1014.7
20260506133400 0 0.0 0.0 0.00 0.00 0.00 1014.8
20260506132826 0 0.0 0.0 0.00 0.00 0.00 1014.8
20260506132246 0 96 7.8 9.6 0.00 0.00 0.00 1014.8
20260506131706 0 96 7.8 9.6 0.00 0.00 0.00 1014.8
20260506130637 0 96 7.8 9.6 0.00 0.00 0.00 1014.8
20260506130137 0 92 7.8 7.8 0.00 0.00 0.00 1014.7
20260506125615 0 90 7.8 8.7 0.00 0.00 0.00 1014.7
20260506125057 0 92 7.8 9.6 0.00 0.00 0.00 1014.7
20260506124022 0 96 7.8 8.7 0.00 0.00 0.00 1014.8
20260506123509 0 88 7.8 7.8 0.00 0.00 0.00 1014.8
20260506122948 0 88 7.8 7.8 0.00 0.00 0.00 1014.9
20260506122446 0 88 7.8 9.6 0.00 0.00 0.00 1014.9
20260506121937 0 104 7.8 9.6 0.00 0.00 0.00 1015.0
20260506121415 0 63 7.8 9.6 0.00 0.00 0.00 1015.0
20260506120315 0 85 7.0 9.6 0.00 0.00 0.00 1015.1
20260506115748 0 109 7.8 9.6 0.00 0.00 0.00 1015.1
20260506115238 0 68 7.8 9.6 0.00 0.00 0.00 1015.1
20260506114734 0 91 7.8 9.6 0.00 0.00 0.00 1015.2
20260506114233 0 108 7.8 8.7 0.00 0.00 0.00 1015.2
20260506113652 0 86 7.8 9.6 0.00 0.00 0.00 1015.2
20260506113144 0 81 7.8 9.6 0.00 0.00 0.00 1015.2
20260506112643 0 0.0 0.0 0.00 0.00 0.00 1015.2
20260506112137 0 0.0 0.0 0.00 0.00 0.00 1015.2
20260506111619 0 100 7.0 7.8 0.00 0.00 0.00 1015.2
20260506111039 0 100 7.0 7.8 0.00 0.00 0.00 1015.2
20260506110459 0 100 7.0 7.8 0.00 0.00 0.00 1015.2
20260506105929 0 100 7.0 7.8 0.00 0.00 0.00 1015.2
20260506105427 0 92 7.0 8.7 0.00 0.00 0.00 1015.2
20260506104923 0 77 7.0 9.6 0.00 0.00 0.00 1015.1
20260506104403 0 83 7.0 9.6 0.00 0.00 0.00 1015.1
20260506103901 0 94 6.1 9.6 0.00 0.00 0.00 1015.1
20260506103343 0 83 6.1 8.7 0.00 0.00 0.00 1015.1
20260506102841 0 67 6.1 8.7 0.00 0.00 0.00 1015.1
20260506101838 0 103 5.2 8.7 0.00 0.00 0.00 1015.1
20260506100836 0 57 5.2 8.7 0.00 0.00 0.00 1015.1
20260506100334 0 83 5.2 7.8 0.00 0.00 0.00 1015.1
20260506095334 0 81 5.2 7.0 0.00 0.00 0.00 1015.1
20260506094835 0 54 5.2 7.8 0.00 0.00 0.00 1015.1
20260506094335 0 76 5.2 7.8 0.00 0.00 0.00 1015.1
20260506093337 0 83 5.2 7.0 0.00 0.00 0.00 1015.1
20260506092834 0 84 5.2 7.0 0.00 0.00 0.00 1015.1
20260506092336 0 84 5.2 7.0 0.00 0.00 0.00 1015.1
20260506091837 0 91 5.2 7.0 0.00 0.00 0.00 1015.1
20260506090836 0 76 5.2 7.8 0.00 0.00 0.00 1015.1
20260506090333 0 73 5.2 7.8 0.00 0.00 0.00 1015.1
20260506085833 0 71 6.1 7.8 0.00 0.00 0.00 1015.1
20260506085333 0 77 6.1 7.8 0.00 0.00 0.00 1015.1
20260506084334 0 77 6.1 7.8 0.00 0.00 0.00 1015.0
20260506083825 0 83 6.1 7.8 0.00 0.00 0.00 1015.0
20260506082827 0 69 5.2 8.7 0.00 0.00 0.00 1015.0
20260506082310 0 77 5.2 8.7 0.00 0.00 0.00 1015.0
20260506081812 0 61 4.3 7.8 0.00 0.00 0.00 1015.0
20260506081311 0 78 4.3 7.0 0.00 0.00 0.00 1015.0
20260506080808 0 80 4.3 5.2 0.00 0.00 0.00 1015.0
20260506080307 0 90 4.3 4.3 0.00 0.00 0.00 1015.0
20260506073058 0 52 5.2 6.1 0.00 0.00 0.00 1014.8
20260506072549 0 54 5.2 6.1 0.00 0.00 0.00 1014.8
20260506071958 0 81 5.2 6.1 0.00 0.00 0.00 1014.8
20260506071447 0 70 5.2 6.1 0.00 0.00 0.00 1014.7
20260506070938 0 66 5.2 6.1 0.00 0.00 0.00 1014.7
20260506070432 0 67 4.3 6.1 0.00 0.00 0.00 1014.6
20260506062321 0 0.0 0.0 0.00 0.00 0.00 1014.7
20260506061742 0 0.0 0.0 0.00 0.00 0.00 1014.7
20260506061224 0 0.0 0.0 0.00 0.00 0.00 1014.7
20260506060642 0 0.0 0.0 0.00 0.00 0.00 1014.7
20260506060122 0 0.0 0.0 0.00 0.00 0.00 1014.7
20260506051343 0 0.0 0.0 0.00 0.00 0.00 1014.5
20260506050835 0 0.0 0.0 0.00 0.00 0.00 1014.5
20260506050334 0 0.0 0.0 0.00 0.00 0.00 1014.5
20260506044822 0 0.0 0.0 0.00 0.00 0.00 1014.4
20260506044314 0 0.0 0.0 0.00 0.00 0.00 1014.4
20260506042035 0 0.0 0.0 0.00 0.00 0.00 1014.3
20260506041525 0 0.0 0.0 0.00 0.00 0.00 1014.2
20260506040945 0 0.0 0.0 0.00 0.00 0.00 1014.2
20260506040350 0 0.0 0.0 0.00 0.00 0.00 1014.1
20260506035228 0 0.0 0.0 0.00 0.00 0.00 1014.1
20260506034123 0 0.0 0.0 0.00 0.00 0.00 1014.0
20260506033544 0 0.0 0.0 0.00 0.00 0.00 1014.0
20260506033004 0 0.0 0.0 0.00 0.00 0.00 1014.0
20260506032423 0 0.0 0.0 0.00 0.00 0.00 1014.0
20260506031848 0 0.0 0.0 0.00 0.00 0.00 1013.8
20260506031310 0 0.0 0.0 0.00 0.00 0.00 1013.8
20260506030729 0 0.0 0.0 0.00 0.00 0.00 1013.8
20260506030155 0 0.0 0.0 0.00 0.00 0.00 1013.7
20260506025035 0 0.0 0.0 0.00 0.00 0.00 1013.7
20260506024523 0 0.0 0.0 0.00 0.00 0.00 1013.6
20260506024018 0 0.0 0.0 0.00 0.00 0.00 1013.6
20260506022318 0 0.0 0.0 0.00 0.00 0.00 1013.5
20260506021737 0 0.0 0.0 0.00 0.00 0.00 1013.5
20260506021144 0 0.0 0.0 0.00 0.00 0.00 1013.5
20260506020633 0 0.0 0.0 0.00 0.00 0.00 1013.5
20260506020113 0 0.0 0.0 0.00 0.00 0.00 1013.4
20260506015533 0 0.0 0.0 0.00 0.00 0.00 1013.4
20260506014953 0 0.0 0.0 0.00 0.00 0.00 1013.4
20260506014412 0 0.0 0.0 0.00 0.00 0.00 1013.4
20260506013253 0 0.0 0.0 0.00 0.00 0.00 1013.4
20260506012713 0 0.0 0.0 0.00 0.00 0.00 1013.4
20260506012132 0 0.0 0.0 0.00 0.00 0.00 1013.4
20260506011004 0 0.0 0.0 0.00 0.00 0.00 1013.5
20260506005846 0 0.0 0.0 0.00 0.00 0.00 1013.5
20260506004726 0 0.0 0.0 0.00 0.00 0.00 1013.5
20260506004148 0 0.0 0.0 0.00 0.00 0.00 1013.5
20260506003605 0 0.0 0.0 0.00 0.00 0.00 1013.5
20260506003059 0 0.0 0.0 0.00 0.00 0.00 1013.5
20260506002519 0 0.0 0.0 0.00 0.00 0.00 1013.5
20260506001927 0 0.0 0.0 0.00 0.00 0.00 1013.6
20260506001348 0 0.0 0.0 0.00 0.00 0.00 1013.6
20260506000309 0 0.0 0.0 0.00 0.00 0.00 1013.5
20260505235729 0 0.0 0.0 0.00 0.00 0.00 1013.5
20260505234603 0 0.0 0.0 0.00 0.00 0.00 1013.6
20260505234019 0 0.0 0.0 0.00 0.00 0.00 1013.6
20260505232901 0 0.0 0.0 0.00 0.00 0.00 1013.7
20260505231212 0 0.0 0.0 0.00 0.00 0.00 1013.9
20260505230632 0 0.0 0.0 0.00 0.00 0.00 1013.9
20260505230124 0 0.0 0.0 0.00 0.00 0.00 1014.0
20260505225616 0 0.0 0.0 0.00 0.00 0.00 1014.0
20260505225036 0 0.0 0.0 0.00 0.00 0.00 1014.0
20260505224519 0 0.0 0.0 0.00 0.00 0.00 1014.2
20260505223925 0 0.0 0.0 0.00 0.00 0.00 1014.2
20260505223354 0 0.0 0.0 0.00 0.00 0.00 1014.3
20260505222815 0 0.0 0.0 0.00 0.00 0.00 1014.3
20260505222306 0 0.0 0.0 0.00 0.00 0.00 1014.3
20260505221759 0 0.0 0.0 0.00 0.00 0.00 1014.3
20260505221249 0 0.0 0.0 0.00 0.00 0.00 1014.3
20260505220745 0 0.0 0.0 0.00 0.00 0.00 1014.3
20260505215735 0 0.0 0.0 0.00 0.00 0.00 1014.2
20260505215235 0 0.0 0.0 0.00 0.00 0.00 1014.2
20260505214711 0 0.0 0.0 0.00 0.00 0.00 1014.2
20260505214209 0 0.0 0.0 0.00 0.00 0.00 1014.2
20260505213613 0 0.0 0.0 0.00 0.00 0.00 1014.2
20260505213109 0 0.0 0.0 0.00 0.00 0.00 1014.2
20260505212605 0 0.0 0.0 0.00 0.00 0.00 1014.2
20260505212101 0 0.0 0.0 0.00 0.00 0.00 1014.2
20260505211521 0 0.0 0.0 0.00 0.00 0.00 1014.2
20260505210938 0 0.0 0.0 0.00 0.00 0.00 1014.2
20260505210430 0 0.0 0.0 0.00 0.00 0.00 1014.3
20260505205837 0 0.0 0.0 0.00 0.00 0.00 1014.3
20260505205333 0 0.0 0.0 0.00 0.00 0.00 1014.3
20260505204314 0 0.0 0.0 0.00 0.00 0.00 1014.3
20260505203722 0 0.0 0.0 0.00 0.00 0.00 1014.3
20260505202609 0 0.0 0.0 0.00 0.00 0.00 1014.2